Meteo Giornale » Osservazioni meteo Argentina » Ezeiza Aerodrome
ore: 16:00 - Osservazioni Meteo Ezeiza Aerodrome
Lat. 34° 49' S Lon. 58° 32' W Alt. 20 metri s.l.m.
18 °C
Sereno
Temp. 24 Ore
11 °C
20 °C
Sud-Est
13 Km/h
Dew point 12 °C
Umidità 67 %
Visibilità 10 Km
Il sole sorge alle ore 07:13
Il sole tramonta alle ore 18:34
| Data e Ora | Cielo e Fenomeni | T °C | DP °C | Um. % | Pres. hPa | Vis. km | Vento km/h | |
|---|---|---|---|---|---|---|---|---|
| Oggi h: 16:00 | Sereno | 18 | 12 | 67 | 1015 | 10 | SE 13 | |
| Oggi h: 15:00 | Sereno | 19 | 13 | 68 | 1014 | 10 | E/SE 16.7 | |
| Oggi h: 14:00 | Sereno | 19 | 13 | 68 | 1014 | 10 | S/SE 11.1 | |
| Oggi h: 13:00 | Sereno | 19 | 12 | 63 | 1015 | 10 | SE 13 | |
| Oggi h: 12:00 | Nuvoloso | 18 | 12 | 67 | 1016 | 10 | E 7.4 | |
| Oggi h: 11:00 | Coperto | 16 | 12 | 77 | 1015 | 10 | E/SE 7.4 | |
| Oggi h: 10:25 | Molto Nuvoloso | 15 | 12 | 82 | 1015 | 10 | E/SE 7.4 | |
| Oggi h: 10:00 | Molto Nuvoloso | 15 | 12 | 82 | 1015 | 10 | E/NE 20.3 | |
| Oggi h: 09:00 | Molto Nuvoloso | 15 | 12 | 82 | 1014 | 10 | E/NE 14.8 | |
| Oggi h: 08:00 | Molto Nuvoloso | 13 | 12 | 93 | 1015 | 10 | N/NE 9.3 | |
| Oggi h: 07:00 | Molto Nuvoloso | 11 | 10 | 93 | 1015 | 10 | N 0 | |
| Oggi h: 06:00 | Sereno | 13 | 11 | 87 | 1014 | 10 | E/NE 9.3 | |
| Oggi h: 05:00 | Sereno | 14 | 12 | 87 | 1013 | 10 | N/NE 14.8 | |
| Oggi h: 04:00 | Sereno | 15 | 12 | 82 | 1013 | 10 | NE 20.3 | |
| Oggi h: 03:00 | Sereno | 15 | 12 | 82 | 1014 | 10 | N/NE 22.2 | |
| Oggi h: 02:00 | Sereno | 15 | 11 | 76 | 1014 | 10 | E/NE 13 | |
| Oggi h: 01:00 | Sereno | 14 | 10 | 76 | 1015 | 10 | E/SE 7.4 | |
| Oggi h: 00:00 | Sereno | 15 | 10 | 72 | 1015 | 10 | E 16.7 | |
| Ieri h: 23:00 | Sereno | 15 | 9 | 67 | 1017 | 10 | O/NO 7.4 | |
| Ieri h: 22:00 | Sereno | 14 | 8 | 67 | 1015 | 10 | E 13 | |
| Ieri h: 21:00 | Sereno | 15 | 6 | 54 | 1015 | 10 | E 16.7 | |
| Ieri h: 20:00 | Sereno | 16 | 7 | 55 | 1015 | 10 | E 14.8 | |
| Ieri h: 19:00 | Sereno | 15 | 7 | 58 | 1015 | 10 | E/SE 13 | |
| Ieri h: 18:00 | Sereno | 19 | 8 | 48 | 1014 | 10 | E/NE 13 | |
| Ieri h: 17:00 | Sereno | 20 | 8 | 45 | 1014 | 10 | E/NE 16.7 | |



